tititudorancea.com
Station Historical Data
Daily Summary for Nil La, TWC- Units:  Metric    English   Both
« Previous Day
Next Day »
Daily Weekly Monthly Yearly Custom
  High: Low: Average:
Temperature: -17.8 °C 6.6 °C 9.6 °C
Dew Point: -17.8 °C 5.1 °C 6.4 °C
Humidity: Humidity % 44 % 82 %
Wind Speed: 0 km/h 0 km/h 0.5 km/h
Wind Gust: 0 km/h - -
Wind:- - South
Pressure: 0 hPa 1018.5 hPa -
Precipitation: 0 mm    
Historical Graphs
 
 
Ararat weather Find more about Weather in Ararat, AU


 



 


Tabular Data for Nil La, TWC-
Time Temperature Dew Point Pressure Wind Wind Speed Wind Gust Humidity Rainfall Rate (Hourly)
-17.8 °C -17.8 °C 0 hPa Calm     Humidity % 0 mm
00:05 10.5 °C 7 °C 1019.5 hPa Calm     79 % 0 mm
00:10 10.4 °C 6.9 °C 1019.5 hPa Calm     79 % 0 mm
00:15 10.2 °C 6.9 °C 1019.2 hPa Calm     80 % 0 mm
00:20 10.2 °C 6.9 °C 1019.5 hPa Calm     80 % 0 mm
00:25 10 °C 6.7 °C 1019.2 hPa Calm     80 % 0 mm
00:30 9.9 °C 6.8 °C 1019.2 hPa Calm     81 % 0 mm
00:35 9.8 °C 6.9 °C 1019.2 hPa Calm     82 % 0 mm
00:40 9.7 °C 6.7 °C 1019.2 hPa Calm     82 % 0 mm
00:45 9.6 °C 6.8 °C 1019.5 hPa Calm     83 % 0 mm
00:50 9.5 °C 6.9 °C 1019.5 hPa Calm     84 % 0 mm
00:55 9.4 °C 6.9 °C 1019.2 hPa Calm     84 % 0 mm
01:00 9.4 °C 6.8 °C 1019.2 hPa Calm     84 % 0 mm
01:05 9.3 °C 6.7 °C 1019.2 hPa Calm     84 % 0 mm
01:10 9.2 °C 6.7 °C 1019.2 hPa Calm     84 % 0 mm
01:12 9.2 °C 6.6 °C 1019.2 hPa Calm     84 % 0 mm
01:17 9.1 °C 6.6 °C 1019.2 hPa Calm     84 % 0 mm
01:22 9 °C 6.6 °C 1019.2 hPa Calm     85 % 0 mm
01:27 8.9 °C 6.3 °C 1019.2 hPa Calm     84 % 0 mm
01:32 8.7 °C 6.2 °C 1019.2 hPa SSE 1.4 km/h 1.9 km/h 84 % 0 mm
01:37 8.6 °C 6.2 °C 1019.2 hPa Calm     85 % 0 mm
01:42 8.4 °C 6 °C 1019.2 hPa Calm     85 % 0 mm
01:47 8.3 °C 6.1 °C 1019.2 hPa Calm     86 % 0 mm
01:52 8.2 °C 5.9 °C 1019.2 hPa Calm     86 % 0 mm
01:57 8.2 °C 6.1 °C 1019.2 hPa Calm     87 % 0 mm
02:02 8.1 °C 6.1 °C 1019.2 hPa Calm     87 % 0 mm
02:07 8.1 °C 6.2 °C 1019.2 hPa Calm     88 % 0 mm
02:12 8 °C 6.1 °C 1019.2 hPa Calm     88 % 0 mm
02:17 8 °C 6.1 °C 1019.2 hPa Calm     88 % 0 mm
02:22 7.9 °C 6.1 °C 1019.2 hPa Calm     88 % 0 mm
02:27 7.8 °C 5.9 °C 1019.2 hPa Calm     88 % 0 mm
02:32 7.8 °C 6.1 °C 1019.2 hPa Calm     89 % 0 mm
02:37 7.9 °C 6.2 °C 1019.2 hPa Calm     89 % 0 mm
02:39 7.9 °C 6.4 °C 1019.2 hPa Calm     90 % 0 mm
02:44 8.1 °C 6.5 °C 1019.2 hPa Calm     90 % 0 mm
02:49 8.1 °C 6.6 °C 1018.8 hPa Calm     90 % 0 mm
02:54 8 °C 6.3 °C 1018.8 hPa Calm     89 % 0 mm
02:59 7.9 °C 6.2 °C 1018.8 hPa Calm     89 % 0 mm
03:04 7.8 °C 6.1 °C 1018.5 hPa Calm     89 % 0 mm
03:09 7.7 °C 6 °C 1018.5 hPa Calm     89 % 0 mm
03:14 7.7 °C 6 °C 1018.5 hPa Calm     89 % 0 mm
03:19 7.7 °C 5.9 °C 1018.5 hPa Calm     89 % 0 mm
03:24 7.4 °C 5.7 °C 1018.5 hPa Calm     89 % 0 mm
03:29 7.4 °C 5.9 °C 1018.5 hPa Calm     90 % 0 mm
03:34 7.5 °C 5.9 °C 1018.5 hPa Calm     90 % 0 mm
03:39 7.6 °C 6 °C 1018.5 hPa Calm     90 % 0 mm
03:44 7.5 °C 5.9 °C 1018.5 hPa Calm     90 % 0 mm
03:49 7.5 °C 5.9 °C 1018.8 hPa Calm     90 % 0 mm
03:54 7.4 °C 5.9 °C 1018.8 hPa Calm     90 % 0 mm
03:59 7.3 °C 5.7 °C 1018.8 hPa Calm     89 % 0 mm
04:04 7.2 °C 5.6 °C 1018.8 hPa Calm     89 % 0 mm
04:09 7.1 °C 5.6 °C 1018.8 hPa Calm     90 % 0 mm
04:14 7.1 °C 5.5 °C 1018.8 hPa Calm     90 % 0 mm
04:19 7 °C 5.4 °C 1018.8 hPa Calm     90 % 0 mm
04:24 7.1 °C 5.5 °C 1018.8 hPa Calm     90 % 0 mm
04:29 6.9 °C 5.3 °C 1019.2 hPa Calm     89 % 0 mm
04:34 6.9 °C 5.4 °C 1019.2 hPa Calm     90 % 0 mm
04:39 6.8 °C 5.3 °C 1019.2 hPa Calm     90 % 0 mm
04:44 6.9 °C 5.4 °C 1019.2 hPa Calm     90 % 0 mm
04:49 6.8 °C 5.3 °C 1019.2 hPa Calm     90 % 0 mm
04:54 6.7 °C 5.2 °C 1019.2 hPa Calm     90 % 0 mm
04:59 6.7 °C 5.2 °C 1019.2 hPa Calm     90 % 0 mm
05:04 6.6 °C 5.1 °C 1019.2 hPa Calm     90 % 0 mm
05:09 6.6 °C 5.2 °C 1019.2 hPa Calm     91 % 0 mm
05:14 6.6 °C 5.2 °C 1019.2 hPa Calm     91 % 0 mm
05:19 6.7 °C 5.3 °C 1019.2 hPa Calm     91 % 0 mm
05:24 6.7 °C 5.3 °C 1019.2 hPa Calm     91 % 0 mm
05:29 6.8 °C 5.4 °C 1019.2 hPa Calm     91 % 0 mm
05:34 6.8 °C 5.4 °C 1019.5 hPa Calm     91 % 0 mm
05:39 6.8 °C 5.4 °C 1019.5 hPa Calm     91 % 0 mm
05:44 6.8 °C 5.4 °C 1019.9 hPa Calm     91 % 0 mm
05:49 6.9 °C 5.5 °C 1019.9 hPa Calm     91 % 0 mm
05:54 6.9 °C 5.5 °C 1020.2 hPa Calm     91 % 0 mm
05:59 6.9 °C 5.5 °C 1020.5 hPa SSE 3.9 km/h 6.4 km/h 91 % 0 mm
06:04 6.8 °C 5.4 °C 1020.5 hPa SSE 6.9 km/h 13 km/h 91 % 0 mm
06:09 7 °C 5.6 °C 1020.5 hPa Calm   1.9 km/h 91 % 0 mm
06:14 7.2 °C 5.8 °C 1020.5 hPa SSE 1.4 km/h 5.6 km/h 91 % 0 mm
06:19 7.3 °C 5.9 °C 1020.5 hPa Calm     91 % 0 mm
06:24 7.4 °C 6.1 °C 1020.5 hPa Calm   3.7 km/h 91 % 0 mm
06:29 7.7 °C 6.3 °C 1020.5 hPa SSE 4.3 km/h 7.4 km/h 91 % 0 mm
06:34 7.8 °C 6.2 °C 1020.5 hPa SSE 3.5 km/h 9.3 km/h 90 % 0 mm
06:39 7.8 °C 6.1 °C 1020.9 hPa SSE 0.6 km/h 5.6 km/h 89 % 0 mm
06:44 7.8 °C 5.9 °C 1020.5 hPa SSE 3.4 km/h 5.6 km/h 88 % 0 mm
06:49 7.8 °C 5.9 °C 1020.9 hPa Calm     88 % 0 mm
06:54 7.7 °C 5.8 °C 1020.5 hPa North 6 km/h 9.3 km/h 88 % 0 mm
06:59 7.7 °C 5.8 °C 1020.9 hPa Calm     88 % 0 mm
07:04 7.6 °C 5.7 °C 1020.5 hPa North 1.9 km/h 6.4 km/h 88 % 0 mm
07:09 7.6 °C 5.8 °C 1020.5 hPa SSE 0.6 km/h 1.6 km/h 89 % 0 mm
07:14 7.5 °C 5.8 °C 1020.5 hPa SSE 2.1 km/h 3.7 km/h 89 % 0 mm
07:19 7.6 °C 5.8 °C 1020.5 hPa SSE 1.3 km/h 3.2 km/h 89 % 0 mm
07:24 7.8 °C 6.1 °C 1020.5 hPa Calm     89 % 0 mm
07:29 7.9 °C 6.2 °C 1020.5 hPa SSE 5.6 km/h 6.4 km/h 89 % 0 mm
07:34 8.2 °C 6.5 °C 1020.5 hPa SSE 1.3 km/h 5.6 km/h 89 % 0 mm
07:39 8.4 °C 6.7 °C 1020.5 hPa Calm   1.9 km/h 89 % 0 mm
07:44 8.7 °C 6.8 °C 1020.5 hPa SSE 0.6 km/h 1.9 km/h 88 % 0 mm
07:49 9.1 °C 7.2 °C 1020.5 hPa Calm     88 % 0 mm
07:54 9.4 °C 7.3 °C 1020.5 hPa Calm   1.9 km/h 87 % 0 mm
07:59 9.8 °C 7.7 °C 1020.5 hPa SSE 1.4 km/h 3.2 km/h 87 % 0 mm
08:04 10.2 °C 8 °C 1020.5 hPa Calm     86 % 0 mm
08:42 13.9 °C 9.6 °C 1020.5 hPa Calm     75 % 0 mm
08:47 14.6 °C 9.4 °C 1020.5 hPa Calm     71 % 0 mm
08:52 15.1 °C 9 °C 1020.5 hPa SSE 3.4 km/h 6.4 km/h 67 % 0 mm
08:57 15.5 °C 9.4 °C 1020.5 hPa Calm   1.9 km/h 67 % 0 mm
09:02 15.9 °C 9.1 °C 1020.5 hPa SSE 0.5 km/h 3.2 km/h 64 % 0 mm
09:07 16.3 °C 9.4 °C 1020.5 hPa SSE 0.3 km/h   64 % 0 mm
09:12 16.7 °C 9.2 °C 1020.5 hPa SSE 2.1 km/h 3.7 km/h 61 % 0 mm
09:17 17.2 °C 9.4 °C 1020.2 hPa SSE 0.6 km/h 1.9 km/h 60 % 0 mm
09:22 17.9 °C 9.5 °C 1020.2 hPa Calm     58 % 0 mm
09:27 18.4 °C 9.4 °C 1020.2 hPa Calm     56 % 0 mm
09:32 19 °C 8.9 °C 1020.2 hPa Calm     52 % 0 mm
09:37 19.5 °C 9.1 °C 1020.2 hPa SSE 0.6 km/h 1.9 km/h 51 % 0 mm
09:42 19.8 °C 9.1 °C 1020.2 hPa Calm     50 % 0 mm
09:47 20.3 °C 9.2 °C 1020.2 hPa SSE 0.2 km/h 1.9 km/h 49 % 0 mm
09:52 20.9 °C 9.2 °C 1019.9 hPa SSE 0.5 km/h 3.2 km/h 47 % 0 mm
09:57 21.3 °C 9.2 °C 1019.9 hPa Calm   1.9 km/h 46 % 0 mm
10:02 21.8 °C 9 °C 1019.9 hPa SSE 0.8 km/h 3.2 km/h 44 % 0 mm
10:07 21.8 °C 9.3 °C 1019.9 hPa SSE 1.9 km/h 3.7 km/h 45 % 0 mm
10:12 21.7 °C 9.2 °C 1019.9 hPa Calm     45 % 0 mm
10:17 21.7 °C 9.2 °C 1019.9 hPa Calm     45 % 0 mm
10:22 21.7 °C 9.8 °C 1019.9 hPa Calm     47 % 0 mm
Ararat Weather
Compliments of Weather Underground - 1.5 mb
Click here to send mail.


ABOUT

Live weather data from Ararat, Victoria, Australia, 3377
Data uploaded from Cumulus every 5 minutes to Weather Underground.
This site then downloads the raw data for formatting and display.
Metric and imperial data can be displayed. Graphs and historical data available.
Includes Sun and Moon times and rain image live from BOM.

Check out Ararat Weather on Facebook, Twitter and Google +

Help support ongoing costs by checking out the ads





Follow @AraratWeather